Time,TemperatureF,DewpointF,PressureIn,WindDirection,WindDirectionDegrees,WindSpeedMPH,WindSpeedGustMPH,Humidity,HourlyPrecipIn,Conditions,Clouds,dailyrainin,SoftwareType,DateUTC
2013-05-11 00:01:00,61.7,56.5,29.89,SW,225,0.0,0.0,83,0.00,,OVC,0.00,VWS V14.00,2013-05-11 04:01:00,
2013-05-11 00:06:00,61.7,56.5,29.91,WNW,292,0.0,0.0,83,0.00,,OVC,0.00,VWS V14.00,2013-05-11 04:06:00,
2013-05-11 00:11:00,62.0,56.5,29.89,SSE,158,0.0,0.0,82,0.00,,OVC,0.00,VWS V14.00,2013-05-11 04:11:00,
2013-05-11 00:16:00,62.4,56.8,29.90,NW,315,2.6,2.6,82,0.00,,OVC,0.00,VWS V14.00,2013-05-11 04:16:00,
2013-05-11 00:21:00,62.9,57.0,29.89,WSW,248,0.0,0.0,81,0.00,,OVC,0.00,VWS V14.00,2013-05-11 04:21:00,
2013-05-11 00:26:00,63.3,57.0,29.91,WSW,248,0.6,0.6,80,0.00,,OVC,0.00,VWS V14.00,2013-05-11 04:26:00,
2013-05-11 00:31:00,63.6,57.0,29.89,SW,225,1.5,1.5,79,0.00,,OVC,0.00,VWS V14.00,2013-05-11 04:31:00,
2013-05-11 00:36:00,64.0,57.0,29.90,WSW,248,1.1,1.1,78,0.00,,OVC,0.00,VWS V14.00,2013-05-11 04:36:00,
2013-05-11 00:41:00,64.0,57.0,29.89,SSW,202,2.0,2.0,78,0.00,,OVC,0.00,VWS V14.00,2013-05-11 04:41:00,
2013-05-11 00:46:00,64.2,57.2,29.91,SW,225,0.0,0.0,78,0.00,,OVC,0.00,VWS V14.00,2013-05-11 04:46:00,
2013-05-11 00:51:00,64.2,56.8,29.90,WSW,248,0.0,0.0,77,0.00,,OVC,0.00,VWS V14.00,2013-05-11 04:51:00,
2013-05-11 00:56:00,64.2,56.8,29.90,WNW,292,0.0,0.0,77,0.00,,OVC,0.00,VWS V14.00,2013-05-11 04:56:00,
2013-05-11 01:01:00,64.2,56.8,29.90,West,270,0.0,0.0,77,0.00,,OVC,0.00,VWS V14.00,2013-05-11 05:01:00,
2013-05-11 01:06:00,64.2,56.8,29.90,West,270,2.4,2.4,77,0.00,,OVC,0.00,VWS V14.00,2013-05-11 05:06:00,
2013-05-11 01:11:00,64.2,56.8,29.90,WNW,292,0.0,0.0,77,0.00,,OVC,0.00,VWS V14.00,2013-05-11 05:11:00,
2013-05-11 01:16:00,64.2,56.8,29.90,West,270,0.0,0.0,77,0.00,,OVC,0.00,VWS V14.00,2013-05-11 05:16:00,
2013-05-11 01:21:00,64.2,56.8,29.90,WNW,292,0.8,0.8,77,0.00,,OVC,0.00,VWS V14.00,2013-05-11 05:21:00,
2013-05-11 01:26:00,64.5,57.1,29.90,WNW,292,4.0,4.0,77,0.00,,OVC,0.00,VWS V14.00,2013-05-11 05:26:00,
2013-05-11 01:31:00,64.5,57.5,29.90,West,270,0.0,0.0,78,0.00,,OVC,0.00,VWS V14.00,2013-05-11 05:31:00,
2013-05-11 01:36:00,64.5,57.5,29.89,WNW,292,0.0,0.0,78,0.00,,OVC,0.00,VWS V14.00,2013-05-11 05:36:00,
2013-05-11 01:41:00,64.4,57.8,29.90,West,270,2.2,2.2,79,0.00,,OVC,0.00,VWS V14.00,2013-05-11 05:41:00,
2013-05-11 01:46:00,64.2,57.6,29.90,WNW,292,0.6,0.6,79,0.00,,OVC,0.00,VWS V14.00,2013-05-11 05:46:00,
2013-05-11 01:51:00,64.2,57.9,29.89,West,270,0.0,0.0,80,0.00,,OVC,0.00,VWS V14.00,2013-05-11 05:51:00,
2013-05-11 01:56:00,64.2,58.3,29.88,WSW,248,0.0,0.0,81,0.00,,OVC,0.00,VWS V14.00,2013-05-11 05:56:00,
2013-05-11 02:01:00,64.0,58.4,29.87,WSW,248,0.0,0.0,82,0.00,,OVC,0.00,VWS V14.00,2013-05-11 06:01:00,
2013-05-11 02:06:00,64.0,58.4,29.88,WSW,248,0.0,0.0,82,0.00,,OVC,0.00,VWS V14.00,2013-05-11 06:06:00,
2013-05-11 02:11:00,63.8,58.5,29.90,West,270,0.6,0.6,83,0.00,,OVC,0.00,VWS V14.00,2013-05-11 06:11:00,
2013-05-11 02:16:00,63.6,58.3,29.91,SW,225,3.8,3.8,83,0.00,,OVC,0.00,VWS V14.00,2013-05-11 06:16:00,
2013-05-11 02:21:00,63.6,58.7,29.91,WSW,248,2.9,2.9,84,0.00,,OVC,0.00,VWS V14.00,2013-05-11 06:21:00,
2013-05-11 02:26:00,63.5,58.6,29.90,SW,225,0.2,0.2,84,0.00,,OVC,0.00,VWS V14.00,2013-05-11 06:26:00,
2013-05-11 02:31:00,63.5,58.9,29.90,SW,225,1.1,1.1,85,0.00,,OVC,0.00,VWS V14.00,2013-05-11 06:31:00,
2013-05-11 02:35:00,63.3,58.7,29.89,West,270,0.0,0.0,85,0.00,,OVC,0.00,VWS V14.00,2013-05-11 06:35:00,
2013-05-11 02:40:00,63.3,58.7,29.90,West,270,0.0,0.0,85,0.02,,OVC,0.02,VWS V14.00,2013-05-11 06:40:00,
2013-05-11 02:45:00,63.1,58.8,29.90,WSW,248,0.0,3.1,86,0.02,,OVC,0.02,VWS V14.00,2013-05-11 06:45:00,
2013-05-11 02:50:00,63.1,58.8,29.89,WSW,248,0.0,0.0,86,0.02,,OVC,0.02,VWS V14.00,2013-05-11 06:50:00,
2013-05-11 02:55:00,63.1,58.8,29.89,WSW,248,1.1,1.1,86,0.02,,OVC,0.02,VWS V14.00,2013-05-11 06:55:00,
2013-05-11 03:00:00,63.1,58.8,29.88,WSW,248,0.0,0.0,86,0.02,,OVC,0.02,VWS V14.00,2013-05-11 07:00:00,
2013-05-11 03:05:00,62.9,58.7,29.88,WSW,248,0.0,0.0,86,0.02,,OVC,0.02,VWS V14.00,2013-05-11 07:05:00,
2013-05-11 03:10:00,62.9,58.7,29.87,SW,225,4.4,4.4,86,0.02,,OVC,0.02,VWS V14.00,2013-05-11 07:10:00,
2013-05-11 03:15:00,62.7,58.8,29.87,SW,225,0.0,0.0,87,0.02,,OVC,0.02,VWS V14.00,2013-05-11 07:15:00,
2013-05-11 03:20:00,62.7,58.8,29.87,West,270,0.0,2.2,87,0.02,,OVC,0.02,VWS V14.00,2013-05-11 07:20:00,
2013-05-11 03:25:00,62.6,58.7,29.87,WSW,248,0.0,0.0,87,0.02,,OVC,0.02,VWS V14.00,2013-05-11 07:25:00,
2013-05-11 03:30:00,62.6,58.7,29.88,SW,225,0.0,0.0,87,0.02,,OVC,0.02,VWS V14.00,2013-05-11 07:30:00,
2013-05-11 03:35:00,62.4,58.5,29.87,WSW,248,0.0,0.0,87,0.02,,OVC,0.02,VWS V14.00,2013-05-11 07:35:00,
2013-05-11 03:40:00,62.4,58.5,29.87,SW,225,3.1,3.1,87,0.00,,OVC,0.02,VWS V14.00,2013-05-11 07:40:00,
2013-05-11 03:45:00,62.4,58.5,29.87,WSW,248,0.0,0.0,87,0.00,,OVC,0.02,VWS V14.00,2013-05-11 07:45:00,
2013-05-11 03:50:00,62.4,58.8,29.87,SSW,202,0.0,0.0,88,0.00,,OVC,0.02,VWS V14.00,2013-05-11 07:50:00,
2013-05-11 03:55:00,62.4,58.8,29.87,SSW,202,0.0,0.0,88,0.00,,OVC,0.02,VWS V14.00,2013-05-11 07:55:00,
2013-05-11 04:00:00,62.4,58.8,29.87,SW,225,0.0,0.0,88,0.00,,OVC,0.02,VWS V14.00,2013-05-11 08:00:00,
2013-05-11 04:05:00,62.4,58.8,29.87,SSE,158,0.0,0.0,88,0.00,,OVC,0.02,VWS V14.00,2013-05-11 08:05:00,
2013-05-11 04:10:00,62.4,58.8,29.87,SW,225,4.2,4.2,88,0.00,,OVC,0.02,VWS V14.00,2013-05-11 08:10:00,
2013-05-11 04:15:00,62.4,58.8,29.88,SW,225,5.5,5.5,88,0.00,,OVC,0.02,VWS V14.00,2013-05-11 08:15:00,
2013-05-11 04:20:00,62.4,58.8,29.87,SW,225,3.5,3.5,88,0.00,,OVC,0.02,VWS V14.00,2013-05-11 08:20:00,
2013-05-11 04:25:00,62.4,58.8,29.87,SSW,202,0.4,0.4,88,0.00,,OVC,0.02,VWS V14.00,2013-05-11 08:25:00,
2013-05-11 04:30:00,62.4,58.8,29.87,SW,225,4.0,4.0,88,0.00,,OVC,0.02,VWS V14.00,2013-05-11 08:30:00,
2013-05-11 04:35:00,62.4,58.8,29.87,WSW,248,3.8,3.8,88,0.00,,OVC,0.02,VWS V14.00,2013-05-11 08:35:00,
2013-05-11 04:40:00,62.4,58.8,29.86,SW,225,5.5,5.5,88,0.00,,OVC,0.02,VWS V14.00,2013-05-11 08:40:00,
2013-05-11 04:45:00,62.4,58.8,29.86,WSW,248,6.9,6.9,88,0.00,,OVC,0.02,VWS V14.00,2013-05-11 08:45:00,
2013-05-11 04:50:00,62.4,59.1,29.85,WSW,248,0.8,0.8,89,0.00,,OVC,0.02,VWS V14.00,2013-05-11 08:50:00,
2013-05-11 04:55:00,62.4,59.1,29.85,WSW,248,5.8,5.8,89,0.00,,OVC,0.02,VWS V14.00,2013-05-11 08:55:00,
2013-05-11 05:00:00,62.2,58.9,29.84,SW,225,2.0,2.0,89,0.00,,OVC,0.02,VWS V14.00,2013-05-11 09:00:00,
2013-05-11 05:05:00,62.2,58.9,29.84,SW,225,2.2,2.2,89,0.00,,OVC,0.02,VWS V14.00,2013-05-11 09:05:00,
2013-05-11 05:10:00,62.2,58.9,29.84,West,270,0.0,0.0,89,0.00,,OVC,0.02,VWS V14.00,2013-05-11 09:10:00,
2013-05-11 05:15:00,62.2,58.9,29.84,WSW,248,0.0,0.0,89,0.00,,OVC,0.02,VWS V14.00,2013-05-11 09:15:00,
2013-05-11 05:20:00,62.2,58.9,29.84,SW,225,0.0,0.0,89,0.00,,OVC,0.02,VWS V14.00,2013-05-11 09:20:00,
2013-05-11 05:25:00,62.0,58.7,29.84,WSW,248,1.5,1.5,89,0.00,,OVC,0.02,VWS V14.00,2013-05-11 09:25:00,
2013-05-11 05:30:00,61.8,58.5,29.84,SW,225,2.0,2.0,89,0.00,,OVC,0.02,VWS V14.00,2013-05-11 09:30:00,
2013-05-11 05:35:00,61.8,58.5,29.84,SW,225,4.9,4.9,89,0.00,,OVC,0.02,VWS V14.00,2013-05-11 09:35:00,
2013-05-11 05:40:00,61.8,58.5,29.84,SW,225,2.9,2.9,89,0.00,,OVC,0.02,VWS V14.00,2013-05-11 09:40:00,
2013-05-11 05:45:00,61.8,58.5,29.84,SW,225,0.0,0.0,89,0.00,,OVC,0.02,VWS V14.00,2013-05-11 09:45:00,
2013-05-11 05:50:00,61.8,58.5,29.84,SW,225,0.6,0.6,89,0.00,,OVC,0.02,VWS V14.00,2013-05-11 09:50:00,
2013-05-11 05:55:00,61.7,58.4,29.84,SW,225,0.0,0.0,89,0.00,,OVC,0.02,VWS V14.00,2013-05-11 09:55:00,
2013-05-11 06:00:00,61.7,58.4,29.84,SW,225,0.0,0.0,89,0.00,,OVC,0.02,VWS V14.00,2013-05-11 10:00:00,
2013-05-11 06:05:00,61.7,58.4,29.84,SW,225,0.0,0.0,89,0.00,,OVC,0.02,VWS V14.00,2013-05-11 10:05:00,
2013-05-11 06:10:00,61.7,58.4,29.84,SW,225,0.0,0.0,89,0.00,,OVC,0.02,VWS V14.00,2013-05-11 10:10:00,
2013-05-11 06:15:00,61.7,58.4,29.84,WSW,248,0.0,0.0,89,0.00,,OVC,0.02,VWS V14.00,2013-05-11 10:15:00,
2013-05-11 06:20:00,61.7,58.4,29.84,WSW,248,0.8,0.8,89,0.00,,OVC,0.02,VWS V14.00,2013-05-11 10:20:00,
2013-05-11 06:25:00,61.8,58.5,29.84,SSW,202,0.0,0.0,89,0.00,,OVC,0.02,VWS V14.00,2013-05-11 10:25:00,
2013-05-11 06:30:00,61.8,58.8,29.84,SSE,158,0.0,0.0,90,0.00,,OVC,0.02,VWS V14.00,2013-05-11 10:30:00,
2013-05-11 06:35:00,62.0,59.0,29.84,SW,225,1.5,1.5,90,0.00,,OVC,0.02,VWS V14.00,2013-05-11 10:35:00,
2013-05-11 06:40:00,62.0,59.0,29.84,SSW,202,0.0,0.0,90,0.00,,OVC,0.02,VWS V14.00,2013-05-11 10:40:00,
2013-05-11 06:45:00,62.0,59.0,29.84,SSW,202,1.3,1.3,90,0.00,,OVC,0.02,VWS V14.00,2013-05-11 10:45:00,
2013-05-11 06:50:00,62.2,59.2,29.84,WSW,248,3.3,3.3,90,0.00,,OVC,0.02,VWS V14.00,2013-05-11 10:50:00,
2013-05-11 06:55:00,62.4,59.4,29.84,WSW,248,0.0,0.0,90,0.00,,OVC,0.02,VWS V14.00,2013-05-11 10:55:00,
2013-05-11 07:00:00,62.4,59.1,29.84,SE,135,1.7,1.7,89,0.00,,OVC,0.02,VWS V14.00,2013-05-11 11:00:00,
2013-05-11 07:05:00,62.2,58.9,29.85,SW,225,5.3,5.3,89,0.00,,OVC,0.02,VWS V14.00,2013-05-11 11:05:00,
2013-05-11 07:10:00,62.4,59.1,29.85,SW,225,0.0,0.0,89,0.00,,OVC,0.02,VWS V14.00,2013-05-11 11:10:00,
2013-05-11 07:15:00,62.4,59.1,29.85,WSW,248,0.0,0.0,89,0.00,,OVC,0.02,VWS V14.00,2013-05-11 11:15:00,
2013-05-11 07:20:00,63.1,59.8,29.85,South,180,0.0,0.0,89,0.00,,OVC,0.02,VWS V14.00,2013-05-11 11:20:00,
2013-05-11 07:25:00,63.6,60.3,29.85,South,180,5.5,5.5,89,0.00,,OVC,0.02,VWS V14.00,2013-05-11 11:25:00,
2013-05-11 07:30:00,63.6,60.0,29.85,WSW,248,1.5,1.5,88,0.00,,OVC,0.02,VWS V14.00,2013-05-11 11:30:00,
2013-05-11 07:35:00,64.0,60.4,29.85,West,270,4.0,4.0,88,0.00,,OVC,0.02,VWS V14.00,2013-05-11 11:35:00,
2013-05-11 07:40:00,64.0,60.4,29.85,SW,225,0.0,0.0,88,0.00,,OVC,0.02,VWS V14.00,2013-05-11 11:40:00,
2013-05-11 07:45:00,64.2,60.6,29.85,SW,225,2.9,2.9,88,0.00,,OVC,0.02,VWS V14.00,2013-05-11 11:45:00,
2013-05-11 07:50:00,64.0,60.4,29.85,West,270,0.0,0.0,88,0.00,,OVC,0.02,VWS V14.00,2013-05-11 11:50:00,
2013-05-11 07:55:00,64.2,60.6,29.85,SW,225,0.0,0.0,88,0.00,,OVC,0.02,VWS V14.00,2013-05-11 11:55:00,
2013-05-11 08:00:00,64.5,60.5,29.85,WSW,248,0.0,0.0,87,0.00,,OVC,0.02,VWS V14.00,2013-05-11 12:00:00,
2013-05-11 08:05:00,64.9,60.9,29.85,WSW,248,0.0,0.0,87,0.00,,OVC,0.02,VWS V14.00,2013-05-11 12:05:00,
2013-05-11 08:10:00,65.4,61.4,29.85,SW,225,0.0,0.0,87,0.00,,OVC,0.02,VWS V14.00,2013-05-11 12:10:00,
2013-05-11 08:15:00,66.0,62.0,29.85,SW,225,0.0,0.0,87,0.00,,OVC,0.02,VWS V14.00,2013-05-11 12:15:00,
2013-05-11 08:20:00,66.3,62.0,29.85,West,270,0.6,0.6,86,0.00,,OVC,0.02,VWS V14.00,2013-05-11 12:20:00,
2013-05-11 08:25:00,67.8,63.5,29.84,ESE,112,0.0,0.0,86,0.00,,OVC,0.02,VWS V14.00,2013-05-11 12:25:00,
2013-05-11 08:30:00,69.0,64.0,29.85,SSW,202,1.7,1.7,84,0.00,,OVC,0.02,VWS V14.00,2013-05-11 12:30:00,
2013-05-11 08:35:00,69.8,64.1,29.84,SW,225,2.0,2.0,82,0.00,,OVC,0.02,VWS V14.00,2013-05-11 12:35:00,
2013-05-11 08:40:00,70.1,64.0,29.83,South,180,0.0,0.0,81,0.00,,OVC,0.02,VWS V14.00,2013-05-11 12:40:00,
2013-05-11 08:45:00,70.8,64.3,29.83,South,180,4.2,4.2,80,0.00,,OVC,0.02,VWS V14.00,2013-05-11 12:45:00,
2013-05-11 08:50:00,70.3,63.1,29.83,South,180,7.8,7.8,78,0.00,,OVC,0.02,VWS V14.00,2013-05-11 12:50:00,
2013-05-11 08:55:00,69.6,62.1,29.83,SSW,202,2.6,2.6,77,0.00,,OVC,0.02,VWS V14.00,2013-05-11 12:55:00,
2013-05-11 09:00:00,68.7,61.6,29.83,SW,225,6.4,6.4,78,0.00,,OVC,0.02,VWS V14.00,2013-05-11 13:00:00,
2013-05-11 09:05:00,69.0,62.2,29.83,South,180,0.0,0.0,79,0.00,,OVC,0.02,VWS V14.00,2013-05-11 13:05:00,
2013-05-11 09:10:00,69.6,62.4,29.83,SSW,202,0.0,0.0,78,0.00,,OVC,0.02,VWS V14.00,2013-05-11 13:10:00,
2013-05-11 09:15:00,70.7,63.1,29.83,South,180,6.0,6.0,77,0.00,,OVC,0.02,VWS V14.00,2013-05-11 13:15:00,
2013-05-11 09:20:00,71.2,63.3,29.83,ESE,112,3.5,3.5,76,0.00,,OVC,0.02,VWS V14.00,2013-05-11 13:20:00,
2013-05-11 09:25:00,72.3,63.9,29.83,WSW,248,1.7,1.7,75,0.00,,OVC,0.02,VWS V14.00,2013-05-11 13:25:00,
2013-05-11 09:30:00,72.3,63.2,29.83,South,180,0.2,0.2,73,0.00,,OVC,0.02,VWS V14.00,2013-05-11 13:30:00,
2013-05-11 09:35:00,71.2,62.1,29.83,SSW,202,4.2,4.2,73,0.00,,OVC,0.02,VWS V14.00,2013-05-11 13:35:00,
2013-05-11 09:40:00,70.1,61.8,29.83,West,270,4.4,4.4,75,0.00,,OVC,0.02,VWS V14.00,2013-05-11 13:40:00,
2013-05-11 09:45:00,69.4,61.1,29.83,SW,225,0.0,0.0,75,0.00,,OVC,0.02,VWS V14.00,2013-05-11 13:45:00,
2013-05-11 09:50:00,68.7,60.8,29.83,West,270,2.4,2.4,76,0.00,,OVC,0.02,VWS V14.00,2013-05-11 13:50:00,
2013-05-11 09:55:00,67.8,60.3,29.84,SSE,158,7.8,7.8,77,0.00,,OVC,0.02,VWS V14.00,2013-05-11 13:55:00,
2013-05-11 10:00:00,66.9,59.8,29.83,SW,225,3.1,3.1,78,0.00,,OVC,0.02,VWS V14.00,2013-05-11 14:00:00,
2013-05-11 10:05:00,66.0,59.3,29.83,SSE,158,1.5,1.5,79,0.00,,OVC,0.02,VWS V14.00,2013-05-11 14:05:00,
2013-05-11 10:10:00,65.6,59.3,29.83,SE,135,1.5,1.5,80,0.00,,OVC,0.02,VWS V14.00,2013-05-11 14:10:00,
2013-05-11 10:15:00,65.3,59.3,29.83,SW,225,2.4,2.4,81,0.00,,OVC,0.02,VWS V14.00,2013-05-11 14:15:00,
2013-05-11 10:20:00,65.1,59.5,29.83,WSW,248,0.0,0.0,82,0.00,,OVC,0.02,VWS V14.00,2013-05-11 14:20:00,
2013-05-11 10:25:00,64.9,59.6,29.82,SW,225,2.9,2.9,83,0.00,,OVC,0.02,VWS V14.00,2013-05-11 14:25:00,
2013-05-11 10:30:00,64.9,59.6,29.82,SE,135,0.4,0.4,83,0.00,,OVC,0.02,VWS V14.00,2013-05-11 14:30:00,
2013-05-11 10:35:00,64.7,59.8,29.81,South,180,0.0,0.0,84,0.00,,OVC,0.02,VWS V14.00,2013-05-11 14:35:00,
2013-05-11 10:40:00,64.9,60.0,29.82,WSW,248,2.4,2.4,84,0.00,,OVC,0.02,VWS V14.00,2013-05-11 14:40:00,
2013-05-11 10:45:00,65.3,60.7,29.82,SSE,158,0.0,0.0,85,0.00,,OVC,0.02,VWS V14.00,2013-05-11 14:45:00,
2013-05-11 10:50:00,65.3,60.3,29.82,SW,225,5.1,5.1,84,0.00,,OVC,0.02,VWS V14.00,2013-05-11 14:50:00,
2013-05-11 10:55:00,65.4,60.5,29.82,WSW,248,4.0,4.0,84,0.00,,OVC,0.02,VWS V14.00,2013-05-11 14:55:00,
2013-05-11 11:00:00,65.8,60.8,29.82,SSE,158,0.0,0.0,84,0.00,,OVC,0.02,VWS V14.00,2013-05-11 15:00:00,
2013-05-11 11:05:00,66.0,60.7,29.82,ESE,112,2.6,2.6,83,0.00,,OVC,0.02,VWS V14.00,2013-05-11 15:05:00,
2013-05-11 11:10:00,65.8,60.5,29.82,South,180,5.5,5.5,83,0.00,,OVC,0.02,VWS V14.00,2013-05-11 15:10:00,
2013-05-11 11:15:00,65.6,60.3,29.82,SW,225,8.2,8.2,83,0.00,,OVC,0.02,VWS V14.00,2013-05-11 15:15:00,
2013-05-11 11:20:00,65.8,60.5,29.82,WSW,248,4.9,4.9,83,0.00,,OVC,0.02,VWS V14.00,2013-05-11 15:20:00,
2013-05-11 11:25:00,66.0,60.7,29.82,SE,135,0.0,0.0,83,0.00,,OVC,0.02,VWS V14.00,2013-05-11 15:25:00,
2013-05-11 11:30:00,66.3,60.7,29.82,West,270,0.0,0.0,82,0.00,,OVC,0.02,VWS V14.00,2013-05-11 15:30:00,
2013-05-11 11:35:00,66.2,60.5,29.82,WSW,248,4.0,4.0,82,0.00,,OVC,0.02,VWS V14.00,2013-05-11 15:35:00,
2013-05-11 11:40:00,66.0,60.3,29.83,SW,225,0.0,0.0,82,0.00,,OVC,0.02,VWS V14.00,2013-05-11 15:40:00,
2013-05-11 11:45:00,66.0,60.7,29.82,SSE,158,8.0,8.0,83,0.00,,OVC,0.02,VWS V14.00,2013-05-11 15:45:00,
2013-05-11 11:50:00,66.0,60.7,29.82,SW,225,2.2,2.2,83,0.00,,OVC,0.02,VWS V14.00,2013-05-11 15:50:00,
2013-05-11 11:55:00,66.5,61.2,29.83,WSW,248,1.5,1.5,83,0.00,,OVC,0.02,VWS V14.00,2013-05-11 15:55:00,
2013-05-11 12:00:00,67.2,61.9,29.83,WSW,248,0.0,0.0,83,0.00,,OVC,0.02,VWS V14.00,2013-05-11 16:00:00,
2013-05-11 12:05:00,68.1,62.4,29.83,SW,225,6.0,6.0,82,0.00,,OVC,0.02,VWS V14.00,2013-05-11 16:05:00,
2013-05-11 12:10:00,68.3,62.2,29.83,NW,315,0.4,0.4,81,0.00,,OVC,0.02,VWS V14.00,2013-05-11 16:10:00,
2013-05-11 12:15:00,68.1,62.1,29.82,SW,225,0.0,0.0,81,0.00,,OVC,0.02,VWS V14.00,2013-05-11 16:15:00,
2013-05-11 12:20:00,67.6,61.6,29.82,SW,225,2.0,2.0,81,0.00,,OVC,0.02,VWS V14.00,2013-05-11 16:20:00,
2013-05-11 12:25:00,67.1,61.1,29.81,WSW,248,2.0,2.0,81,0.00,,OVC,0.02,VWS V14.00,2013-05-11 16:25:00,
2013-05-11 12:30:00,67.1,61.1,29.81,South,180,0.0,0.0,81,0.00,,OVC,0.02,VWS V14.00,2013-05-11 16:30:00,
2013-05-11 12:35:00,67.2,61.5,29.81,SW,225,2.2,2.2,82,0.00,,OVC,0.02,VWS V14.00,2013-05-11 16:35:00,
2013-05-11 12:40:00,68.1,62.1,29.80,SW,225,0.0,0.0,81,0.00,,OVC,0.02,VWS V14.00,2013-05-11 16:40:00,
2013-05-11 12:45:00,68.7,62.6,29.80,SW,225,0.0,0.0,81,0.00,,OVC,0.02,VWS V14.00,2013-05-11 16:45:00,
2013-05-11 12:50:00,68.5,61.7,29.80,SW,225,2.0,2.0,79,0.00,,OVC,0.02,VWS V14.00,2013-05-11 16:50:00,
2013-05-11 12:55:00,68.9,62.5,29.80,SW,225,5.5,5.5,80,0.00,,OVC,0.02,VWS V14.00,2013-05-11 16:55:00,
2013-05-11 13:00:00,69.4,63.0,29.79,SW,225,0.0,0.0,80,0.00,,OVC,0.02,VWS V14.00,2013-05-11 17:00:00,
2013-05-11 13:05:00,70.5,63.7,29.78,SW,225,0.0,0.0,79,0.00,,OVC,0.02,VWS V14.00,2013-05-11 17:05:00,
2013-05-11 13:10:00,71.7,64.5,29.78,South,180,0.0,0.0,78,0.00,,OVC,0.02,VWS V14.00,2013-05-11 17:10:00,
2013-05-11 13:15:00,73.4,65.4,29.78,SW,225,1.7,1.7,76,0.00,,OVC,0.02,VWS V14.00,2013-05-11 17:15:00,
2013-05-11 13:20:00,74.3,65.9,29.78,West,270,1.5,1.5,75,0.00,,OVC,0.02,VWS V14.00,2013-05-11 17:20:00,
2013-05-11 13:25:00,75.5,66.6,29.78,SW,225,8.9,8.9,74,0.00,,OVC,0.02,VWS V14.00,2013-05-11 17:25:00,
2013-05-11 13:30:00,77.1,67.0,29.78,SSW,202,3.5,3.5,71,0.00,,OVC,0.02,VWS V14.00,2013-05-11 17:30:00,
2013-05-11 13:35:00,78.0,67.4,29.78,SSW,202,0.0,0.0,70,0.00,,OVC,0.02,VWS V14.00,2013-05-11 17:35:00,
2013-05-11 13:40:00,78.4,66.6,29.77,WSW,248,5.8,5.8,67,0.00,,OVC,0.02,VWS V14.00,2013-05-11 17:40:00,
2013-05-11 13:45:00,78.6,66.7,29.77,WSW,248,4.4,4.4,67,0.00,,OVC,0.02,VWS V14.00,2013-05-11 17:45:00,
2013-05-11 13:50:00,78.6,66.7,29.77,SW,225,3.8,3.8,67,0.00,,OVC,0.02,VWS V14.00,2013-05-11 17:50:00,
2013-05-11 13:55:00,79.1,66.8,29.77,SW,225,2.6,2.6,66,0.00,,OVC,0.02,VWS V14.00,2013-05-11 17:55:00,
2013-05-11 14:00:00,78.0,63.5,29.76,SSE,158,5.3,5.3,61,0.00,,OVC,0.02,VWS V14.00,2013-05-11 18:00:00,
2013-05-11 14:05:00,76.8,63.3,29.77,SW,225,2.2,2.2,63,0.00,,OVC,0.02,VWS V14.00,2013-05-11 18:05:00,
2013-05-11 14:10:00,74.4,61.9,29.76,ENE,68,2.0,2.0,65,0.00,,OVC,0.02,VWS V14.00,2013-05-11 18:10:00,
2013-05-11 14:15:00,73.2,62.0,29.76,SW,225,0.2,0.2,68,0.00,,OVC,0.02,VWS V14.00,2013-05-11 18:15:00,
2013-05-11 14:20:00,73.2,62.8,29.76,South,180,8.2,8.2,70,0.00,,OVC,0.02,VWS V14.00,2013-05-11 18:20:00,
2013-05-11 14:25:00,74.1,63.3,29.75,SW,225,0.2,0.2,69,0.00,,OVC,0.02,VWS V14.00,2013-05-11 18:25:00,
2013-05-11 14:30:00,74.8,64.0,29.75,SSW,202,0.0,0.0,69,0.00,,OVC,0.02,VWS V14.00,2013-05-11 18:30:00,
2013-05-11 14:35:00,75.5,64.6,29.74,South,180,0.6,0.6,69,0.00,,OVC,0.02,VWS V14.00,2013-05-11 18:35:00,
2013-05-11 14:40:00,75.9,64.6,29.74,WSW,248,4.6,4.6,68,0.00,,OVC,0.02,VWS V14.00,2013-05-11 18:40:00,
2013-05-11 14:45:00,76.4,64.6,29.74,SSW,202,3.8,3.8,67,0.00,,OVC,0.02,VWS V14.00,2013-05-11 18:45:00,
2013-05-11 14:50:00,75.7,62.7,29.74,ENE,68,2.0,6.2,64,0.00,,OVC,0.02,VWS V14.00,2013-05-11 18:50:00,
2013-05-11 14:55:00,73.5,60.6,29.74,West,270,0.0,0.0,64,0.00,,OVC,0.02,VWS V14.00,2013-05-11 18:55:00,
2013-05-11 15:00:00,72.3,60.7,29.74,South,180,4.2,4.2,67,0.00,,OVC,0.02,VWS V14.00,2013-05-11 19:00:00,
2013-05-11 15:05:00,71.4,60.3,29.74,ESE,112,7.8,7.8,68,0.00,,OVC,0.02,VWS V14.00,2013-05-11 19:05:00,
2013-05-11 15:10:00,70.8,60.5,29.74,SSE,158,3.1,3.1,70,0.00,,OVC,0.02,VWS V14.00,2013-05-11 19:10:00,
2013-05-11 15:15:00,71.4,60.7,29.74,SE,135,4.4,4.4,69,0.00,,OVC,0.02,VWS V14.00,2013-05-11 19:15:00,
2013-05-11 15:20:00,71.2,60.5,29.73,SE,135,5.1,5.1,69,0.00,,OVC,0.02,VWS V14.00,2013-05-11 19:20:00,
2013-05-11 15:25:00,71.7,61.4,29.73,SSW,202,1.7,1.7,70,0.00,,OVC,0.02,VWS V14.00,2013-05-11 19:25:00,
2013-05-11 15:30:00,71.6,61.3,29.72,SW,225,10.5,10.5,70,0.00,,OVC,0.02,VWS V14.00,2013-05-11 19:30:00,
2013-05-11 15:35:00,71.2,60.9,29.72,SE,135,0.0,0.0,70,0.00,,OVC,0.02,VWS V14.00,2013-05-11 19:35:00,
2013-05-11 15:40:00,70.8,60.9,29.72,South,180,1.3,1.3,71,0.00,,OVC,0.02,VWS V14.00,2013-05-11 19:40:00,
2013-05-11 15:45:00,70.5,60.7,29.71,ESE,112,3.1,3.1,71,0.00,,OVC,0.02,VWS V14.00,2013-05-11 19:45:00,
2013-05-11 15:50:00,69.8,60.0,29.70,South,180,0.0,0.0,71,0.00,,OVC,0.02,VWS V14.00,2013-05-11 19:50:00,
2013-05-11 15:55:00,68.9,59.5,29.70,SSW,202,5.1,5.1,72,0.00,,OVC,0.02,VWS V14.00,2013-05-11 19:55:00,
2013-05-11 16:00:00,68.3,59.3,29.70,SSW,202,0.0,0.0,73,0.00,,OVC,0.02,VWS V14.00,2013-05-11 20:00:00,
2013-05-11 16:05:00,67.8,59.6,29.72,West,270,1.1,1.1,75,0.00,,OVC,0.02,VWS V14.00,2013-05-11 20:05:00,
2013-05-11 16:10:00,67.2,59.0,29.73,SW,225,5.3,5.3,75,0.00,,OVC,0.02,VWS V14.00,2013-05-11 20:10:00,
2013-05-11 16:15:00,66.9,59.1,29.73,SW,225,0.0,0.0,76,0.00,,OVC,0.02,VWS V14.00,2013-05-11 20:15:00,
2013-05-11 16:20:00,66.5,59.1,29.74,NNW,338,14.0,14.0,77,0.00,,OVC,0.02,VWS V14.00,2013-05-11 20:20:00,
2013-05-11 16:25:00,66.2,59.2,29.74,North,0,0.0,0.0,78,0.00,,OVC,0.02,VWS V14.00,2013-05-11 20:25:00,
2013-05-11 16:30:00,66.0,59.3,29.76,NW,315,1.3,1.3,79,0.00,,OVC,0.02,VWS V14.00,2013-05-11 20:30:00,
2013-05-11 16:35:00,65.8,59.5,29.74,NW,315,0.0,0.0,80,0.00,,OVC,0.02,VWS V14.00,2013-05-11 20:35:00,
2013-05-11 16:40:00,65.8,59.8,29.74,NW,315,0.0,0.0,81,0.00,,OVC,0.02,VWS V14.00,2013-05-11 20:40:00,
2013-05-11 16:45:00,65.8,59.8,29.74,SSE,158,2.2,2.2,81,0.00,,OVC,0.02,VWS V14.00,2013-05-11 20:45:00,
2013-05-11 16:50:00,65.4,59.8,29.74,SSE,158,0.6,0.6,82,0.00,,OVC,0.02,VWS V14.00,2013-05-11 20:50:00,
2013-05-11 16:55:00,65.3,60.0,29.73,SSE,158,0.6,0.6,83,0.00,,OVC,0.02,VWS V14.00,2013-05-11 20:55:00,
2013-05-11 17:00:00,65.1,59.8,29.73,SE,135,0.0,0.0,83,0.00,,OVC,0.02,VWS V14.00,2013-05-11 21:00:00,
2013-05-11 17:05:00,64.7,59.4,29.73,SE,135,1.3,1.3,83,0.00,,OVC,0.02,VWS V14.00,2013-05-11 21:05:00,
2013-05-11 17:10:00,64.5,59.6,29.73,SE,135,0.0,0.0,84,0.00,,OVC,0.02,VWS V14.00,2013-05-11 21:10:00,
2013-05-11 17:15:00,64.2,59.3,29.73,SE,135,0.0,0.0,84,0.00,,OVC,0.02,VWS V14.00,2013-05-11 21:15:00,
2013-05-11 17:20:00,64.5,59.6,29.73,SE,135,0.0,0.0,84,0.00,,OVC,0.02,VWS V14.00,2013-05-11 21:20:00,
2013-05-11 17:25:00,64.5,59.9,29.73,NE,45,1.3,1.3,85,0.00,,OVC,0.02,VWS V14.00,2013-05-11 21:25:00,
2013-05-11 17:30:00,64.9,60.3,29.74,North,0,0.0,0.0,85,0.00,,OVC,0.02,VWS V14.00,2013-05-11 21:30:00,
2013-05-11 17:35:00,64.5,59.9,29.75,North,0,0.0,0.0,85,0.00,,OVC,0.02,VWS V14.00,2013-05-11 21:35:00,
2013-05-11 17:40:00,64.5,59.9,29.75,ENE,68,0.0,0.0,85,0.00,,OVC,0.02,VWS V14.00,2013-05-11 21:40:00,
2013-05-11 17:45:00,64.9,60.3,29.74,ENE,68,0.0,0.0,85,0.00,,OVC,0.02,VWS V14.00,2013-05-11 21:45:00,
2013-05-11 17:50:00,65.1,60.8,29.74,ENE,68,0.0,0.0,86,0.00,,OVC,0.02,VWS V14.00,2013-05-11 21:50:00,
2013-05-11 17:55:00,64.9,60.6,29.74,East,90,0.2,0.2,86,0.00,,OVC,0.02,VWS V14.00,2013-05-11 21:55:00,
2013-05-11 18:00:00,64.5,60.2,29.74,ENE,68,0.0,0.0,86,0.00,,OVC,0.02,VWS V14.00,2013-05-11 22:00:00,
2013-05-11 18:05:00,64.5,60.2,29.74,ENE,68,0.0,0.0,86,0.00,,OVC,0.02,VWS V14.00,2013-05-11 22:05:00,
2013-05-11 18:10:00,64.7,60.4,29.74,ENE,68,0.0,0.0,86,0.00,,OVC,0.02,VWS V14.00,2013-05-11 22:10:00,
2013-05-11 18:15:00,64.7,60.4,29.74,ENE,68,0.0,0.0,86,0.00,,OVC,0.02,VWS V14.00,2013-05-11 22:15:00,
2013-05-11 18:20:00,64.9,60.6,29.74,ENE,68,0.0,0.0,86,0.00,,OVC,0.02,VWS V14.00,2013-05-11 22:20:00,
2013-05-11 18:25:00,64.9,60.6,29.74,ENE,68,0.0,0.0,86,0.49,,OVC,0.51,VWS V14.00,2013-05-11 22:25:00,
2013-05-11 18:30:00,64.5,60.5,29.74,ENE,68,0.0,0.0,87,0.49,,OVC,0.51,VWS V14.00,2013-05-11 22:30:00,
2013-05-11 18:35:00,64.2,59.9,29.74,ENE,68,0.0,0.0,86,0.49,,OVC,0.51,VWS V14.00,2013-05-11 22:35:00,
2013-05-11 18:40:00,64.0,59.7,29.74,ESE,112,0.0,0.0,86,0.49,,OVC,0.51,VWS V14.00,2013-05-11 22:40:00,
2013-05-11 18:45:00,63.3,59.0,29.74,SE,135,0.0,0.0,86,0.49,,OVC,0.51,VWS V14.00,2013-05-11 22:45:00,
2013-05-11 18:50:00,63.1,58.8,29.74,SE,135,0.0,0.0,86,0.49,,OVC,0.51,VWS V14.00,2013-05-11 22:50:00,
2013-05-11 18:55:00,62.6,58.0,29.73,SE,135,0.0,0.0,85,0.49,,OVC,0.51,VWS V14.00,2013-05-11 22:55:00,
2013-05-11 19:00:00,62.4,58.2,29.73,SE,135,0.0,0.0,86,0.49,,OVC,0.51,VWS V14.00,2013-05-11 23:00:00,
2013-05-11 19:05:00,62.4,58.2,29.73,SE,135,0.0,0.0,86,0.49,,OVC,0.51,VWS V14.00,2013-05-11 23:05:00,
2013-05-11 19:10:00,62.4,58.2,29.73,SE,135,0.0,0.0,86,0.49,,OVC,0.51,VWS V14.00,2013-05-11 23:10:00,
2013-05-11 19:15:00,62.4,58.2,29.73,SE,135,0.0,0.0,86,0.49,,OVC,0.51,VWS V14.00,2013-05-11 23:15:00,
2013-05-11 19:20:00,62.4,58.2,29.73,SE,135,0.0,0.0,86,0.49,,OVC,0.51,VWS V14.00,2013-05-11 23:20:00,
2013-05-11 19:25:00,62.4,58.2,29.73,SE,135,0.0,0.0,86,0.00,,OVC,0.51,VWS V14.00,2013-05-11 23:25:00,
2013-05-11 19:30:00,62.2,58.3,29.73,SE,135,0.0,0.0,87,0.00,,OVC,0.51,VWS V14.00,2013-05-11 23:30:00,
2013-05-11 19:35:00,62.0,58.1,29.74,SE,135,0.0,0.0,87,0.00,,OVC,0.51,VWS V14.00,2013-05-11 23:35:00,
2013-05-11 19:40:00,62.0,58.1,29.74,SE,135,0.0,0.0,87,0.00,,OVC,0.51,VWS V14.00,2013-05-11 23:40:00,
2013-05-11 19:45:00,62.0,58.1,29.74,SE,135,0.0,0.0,87,0.00,,OVC,0.51,VWS V14.00,2013-05-11 23:45:00,
2013-05-11 19:50:00,62.0,58.1,29.74,SE,135,0.0,0.0,87,0.00,,OVC,0.51,VWS V14.00,2013-05-11 23:50:00,
2013-05-11 19:55:00,61.8,57.9,29.74,SE,135,0.0,0.0,87,0.00,,OVC,0.51,VWS V14.00,2013-05-11 23:55:00,
2013-05-11 20:00:00,61.8,57.9,29.73,SE,135,0.0,0.0,87,0.00,,OVC,0.51,VWS V14.00,2013-05-12 00:00:00,
2013-05-11 20:05:00,61.8,58.2,29.73,SE,135,0.0,0.0,88,0.00,,OVC,0.51,VWS V14.00,2013-05-12 00:05:00,
2013-05-11 20:10:00,61.8,58.2,29.74,SE,135,0.0,0.0,88,0.00,,OVC,0.51,VWS V14.00,2013-05-12 00:10:00,
2013-05-11 20:15:00,61.8,58.2,29.74,SE,135,0.0,0.0,88,0.00,,OVC,0.51,VWS V14.00,2013-05-12 00:15:00,
2013-05-11 20:20:00,62.2,58.6,29.74,SE,135,0.0,0.0,88,0.00,,OVC,0.51,VWS V14.00,2013-05-12 00:20:00,
2013-05-11 20:25:00,62.2,58.6,29.74,SE,135,0.0,0.0,88,0.00,,OVC,0.51,VWS V14.00,2013-05-12 00:25:00,
2013-05-11 20:30:00,62.2,58.6,29.73,SE,135,0.0,0.0,88,0.00,,OVC,0.51,VWS V14.00,2013-05-12 00:30:00,
2013-05-11 20:35:00,62.2,58.6,29.74,SE,135,0.0,0.0,88,0.00,,OVC,0.51,VWS V14.00,2013-05-12 00:35:00,
2013-05-11 20:40:00,62.2,58.6,29.74,SE,135,0.0,0.0,88,0.00,,OVC,0.51,VWS V14.00,2013-05-12 00:40:00,
2013-05-11 20:45:00,62.2,58.6,29.74,SE,135,0.0,0.0,88,0.00,,OVC,0.51,VWS V14.00,2013-05-12 00:45:00,
2013-05-11 20:50:00,62.2,58.6,29.74,SE,135,0.0,0.0,88,0.00,,OVC,0.51,VWS V14.00,2013-05-12 00:50:00,
2013-05-11 20:55:00,62.2,58.6,29.73,SE,135,0.0,0.0,88,0.00,,OVC,0.51,VWS V14.00,2013-05-12 00:55:00,
2013-05-11 21:00:00,62.4,59.1,29.74,SE,135,0.0,0.0,89,0.00,,OVC,0.51,VWS V14.00,2013-05-12 01:00:00,
2013-05-11 21:05:00,62.4,59.1,29.74,SE,135,0.0,0.0,89,0.00,,OVC,0.51,VWS V14.00,2013-05-12 01:05:00,
2013-05-11 21:10:00,62.4,59.1,29.74,SE,135,0.0,0.0,89,0.00,,OVC,0.51,VWS V14.00,2013-05-12 01:10:00,
2013-05-11 21:15:00,62.4,59.1,29.73,SE,135,0.0,0.0,89,0.00,,OVC,0.51,VWS V14.00,2013-05-12 01:15:00,
2013-05-11 21:20:00,62.4,59.1,29.73,SE,135,0.0,0.0,89,0.00,,OVC,0.51,VWS V14.00,2013-05-12 01:20:00,
2013-05-11 21:25:00,62.2,58.9,29.73,SE,135,0.0,0.0,89,0.00,,OVC,0.51,VWS V14.00,2013-05-12 01:25:00,
2013-05-11 21:30:00,62.2,58.9,29.74,SE,135,0.0,0.0,89,0.00,,OVC,0.51,VWS V14.00,2013-05-12 01:30:00,
2013-05-11 21:35:00,62.2,58.9,29.74,SE,135,0.0,0.0,89,0.00,,OVC,0.51,VWS V14.00,2013-05-12 01:35:00,
2013-05-11 21:40:00,62.4,59.1,29.74,SE,135,0.0,0.0,89,0.00,,OVC,0.51,VWS V14.00,2013-05-12 01:40:00,
2013-05-11 21:45:00,62.4,59.4,29.74,SE,135,0.0,0.0,90,0.00,,OVC,0.51,VWS V14.00,2013-05-12 01:45:00,
2013-05-11 21:50:00,62.6,59.6,29.74,SE,135,0.0,0.0,90,0.00,,OVC,0.51,VWS V14.00,2013-05-12 01:50:00,
2013-05-11 21:55:00,62.7,59.7,29.74,SE,135,0.0,0.0,90,0.02,,OVC,0.53,VWS V14.00,2013-05-12 01:55:00,
2013-05-11 22:00:00,62.7,59.7,29.73,SE,135,0.0,0.0,90,0.02,,OVC,0.53,VWS V14.00,2013-05-12 02:00:00,
2013-05-11 22:05:00,62.9,59.9,29.73,SE,135,0.0,0.0,90,0.04,,OVC,0.55,VWS V14.00,2013-05-12 02:05:00,
2013-05-11 22:10:00,62.9,59.9,29.73,SE,135,0.0,0.0,90,0.04,,OVC,0.55,VWS V14.00,2013-05-12 02:10:00,
2013-05-11 22:15:00,62.9,59.9,29.72,SSE,158,0.0,0.0,90,0.04,,OVC,0.55,VWS V14.00,2013-05-12 02:15:00,
2013-05-11 22:20:00,62.9,59.9,29.73,SSE,158,0.0,0.0,90,0.04,,OVC,0.55,VWS V14.00,2013-05-12 02:20:00,
2013-05-11 22:25:00,62.7,59.7,29.73,SSE,158,0.0,0.0,90,0.04,,OVC,0.55,VWS V14.00,2013-05-12 02:25:00,
2013-05-11 22:30:00,62.7,59.7,29.73,SSE,158,0.0,0.0,90,0.04,,OVC,0.55,VWS V14.00,2013-05-12 02:30:00,
2013-05-11 22:35:00,62.7,59.7,29.73,SSE,158,0.0,0.0,90,0.04,,OVC,0.55,VWS V14.00,2013-05-12 02:35:00,
2013-05-11 22:40:00,62.6,59.6,29.73,SSE,158,0.0,0.0,90,0.04,,OVC,0.55,VWS V14.00,2013-05-12 02:40:00,
2013-05-11 22:45:00,62.4,59.4,29.73,SSE,158,0.0,0.0,90,0.04,,OVC,0.55,VWS V14.00,2013-05-12 02:45:00,
2013-05-11 22:50:00,62.4,59.7,29.73,SSE,158,0.0,0.0,91,0.04,,OVC,0.55,VWS V14.00,2013-05-12 02:50:00,
2013-05-11 22:55:00,62.4,59.7,29.73,SSE,158,0.0,0.0,91,0.02,,OVC,0.55,VWS V14.00,2013-05-12 02:55:00,
2013-05-11 23:00:00,62.4,59.7,29.73,SSE,158,0.0,0.0,91,0.02,,OVC,0.55,VWS V14.00,2013-05-12 03:00:00,
2013-05-11 23:05:00,62.6,59.9,29.73,SSE,158,0.0,0.0,91,0.00,,OVC,0.55,VWS V14.00,2013-05-12 03:05:00,
2013-05-11 23:10:00,62.6,59.9,29.73,SSE,158,0.0,0.0,91,0.00,,OVC,0.55,VWS V14.00,2013-05-12 03:10:00,
2013-05-11 23:15:00,62.4,59.7,29.72,SSE,158,0.0,0.0,91,0.00,,OVC,0.55,VWS V14.00,2013-05-12 03:15:00,
2013-05-11 23:20:00,62.4,59.7,29.72,SSE,158,0.0,0.0,91,0.00,,OVC,0.55,VWS V14.00,2013-05-12 03:20:00,
2013-05-11 23:25:00,62.4,59.7,29.72,SSE,158,0.0,0.0,91,0.00,,OVC,0.55,VWS V14.00,2013-05-12 03:25:00,
2013-05-11 23:30:00,62.4,59.7,29.72,SSE,158,0.0,0.0,91,0.00,,OVC,0.55,VWS V14.00,2013-05-12 03:30:00,
2013-05-11 23:35:00,62.4,59.7,29.72,South,180,0.0,0.0,91,0.00,,OVC,0.55,VWS V14.00,2013-05-12 03:35:00,
2013-05-11 23:40:00,62.4,59.7,29.72,South,180,0.0,0.0,91,0.00,,OVC,0.55,VWS V14.00,2013-05-12 03:40:00,
2013-05-11 23:45:00,62.4,59.7,29.72,South,180,0.0,0.0,91,0.00,,OVC,0.55,VWS V14.00,2013-05-12 03:45:00,
2013-05-11 23:50:00,62.4,59.7,29.72,South,180,0.0,0.0,91,0.00,,OVC,0.55,VWS V14.00,2013-05-12 03:50:00,
2013-05-11 23:55:00,62.6,59.9,29.72,SSW,202,0.0,0.0,91,0.00,,OVC,0.55,VWS V14.00,2013-05-12 03:55:00,